Radiation Dose measured at exhaust stack monitor of Fukushima Daiichi Nuclear Power Station
Date,Time,Unit 5 6 shared exhaust cylinders,Wind Direction,Wind Velocity(m/s)
2021/11/30,00:00,3.8,north,0.9
2021/11/30,00:10,3.9,northwest,1.2
2021/11/30,00:20,4.1,west-northwest,1.4
2021/11/30,00:30,3.8,west-southwest,1.4
2021/11/30,00:40,3.8,west-southwest,2.0
2021/11/30,00:50,3.9,west-northwest,0.8
2021/11/30,01:00,3.8,west-northwest,2.2
2021/11/30,01:10,4.0,west-southwest,3.5
2021/11/30,01:20,3.8,west-southwest,3.7
2021/11/30,01:30,4.0,south,1.4
2021/11/30,01:40,4.1,south-southwest,1.9
2021/11/30,01:50,3.9,south-southwest,2.2
2021/11/30,02:00,3.9,southwest,0.9
2021/11/30,02:10,4.0,west-southwest,1.4
2021/11/30,02:20,4.0,west,1.4
2021/11/30,02:30,4.0,west-southwest,1.4
2021/11/30,02:40,4.0,west-southwest,1.4
2021/11/30,02:50,3.9,west,2.3
2021/11/30,03:00,3.8,west-northwest,2.3
2021/11/30,03:10,4.0,west,3.3
2021/11/30,03:20,3.9,west-southwest,3.2
2021/11/30,03:30,3.9,west-southwest,3.5
2021/11/30,03:40,3.9,southwest,3.4
2021/11/30,03:50,3.9,southwest,3.6
2021/11/30,04:00,3.9,south-southwest,4.1
2021/11/30,04:10,4.0,south,3.4
2021/11/30,04:20,4.0,south,3.2
2021/11/30,04:30,3.9,south,4.2
2021/11/30,04:40,3.9,south,4.2
2021/11/30,04:50,4.0,south-southwest,3.1
2021/11/30,05:00,4.0,south-southwest,3.6
2021/11/30,05:10,3.9,south-southwest,4.4
2021/11/30,05:20,3.9,south-southwest,3.8
2021/11/30,05:30,4.0,south,2.3
2021/11/30,05:40,3.9,south-southeast,2.2
2021/11/30,05:50,3.7,south,1.5
2021/11/30,06:00,3.9,south,1.7
2021/11/30,06:10,3.9,south,1.4
2021/11/30,06:20,3.9,southwest,1.1
2021/11/30,06:30,3.9,southwest,1.1
2021/11/30,06:40,3.8,south-southwest,0.9
2021/11/30,06:50,3.8,west-southwest,0.8
2021/11/30,07:00,3.9,south-southwest,0.8
2021/11/30,07:10,4.0,south-southeast,0.8
2021/11/30,07:20,3.9,south-southwest,1.2
2021/11/30,07:30,4.0,south-southwest,0.9
2021/11/30,07:40,3.9,south,1.4
2021/11/30,07:50,3.9,south,1.5
2021/11/30,08:00,4.0,south-southeast,2.2
2021/11/30,08:10,4.0,south-southeast,2.6
2021/11/30,08:20,3.8,south-southeast,2.0
2021/11/30,08:30,4.0,south,1.5
2021/11/30,08:40,4.0,south-southeast,2.3
2021/11/30,08:50,3.9,south-southeast,2.9
2021/11/30,09:00,3.9,south-southeast,2.6
2021/11/30,09:10,4.1,south,1.5
2021/11/30,09:20,3.8,south-southeast,1.4
2021/11/30,09:30,3.8,southeast,1.7
2021/11/30,09:40,3.9,southeast,1.9
2021/11/30,09:50,3.9,south-southeast,1.7
2021/11/30,10:00,3.8,southeast,2.8
2021/11/30,10:10,4.0,south-southeast,3.0
2021/11/30,10:20,3.9,south-southeast,3.7
2021/11/30,10:30,3.8,south-southeast,4.7
2021/11/30,10:40,3.8,south-southeast,4.8
2021/11/30,10:50,4.0,south-southeast,4.2
2021/11/30,11:00,4.0,south-southeast,5.6
2021/11/30,11:10,4.0,south-southeast,7.0
2021/11/30,11:20,4.1,south-southeast,6.5
2021/11/30,11:30,3.9,south-southeast,6.1
2021/11/30,11:40,4.2,south-southeast,5.3
2021/11/30,11:50,3.9,south-southeast,6.0
2021/11/30,12:00,3.9,south-southeast,6.5
2021/11/30,12:10,4.1,south-southeast,6.7
2021/11/30,12:20,3.8,south-southeast,6.8
2021/11/30,12:30,3.9,south-southeast,6.6
2021/11/30,12:40,3.8,south-southeast,6.5
2021/11/30,12:50,4.0,south,6.3
2021/11/30,13:00,4.0,south-southeast,6.5
2021/11/30,13:10,3.9,south-southeast,8.3
2021/11/30,13:20,4.2,south-southeast,7.6
2021/11/30,13:30,3.8,south-southeast,7.0
2021/11/30,13:40,3.9,south-southeast,6.7
2021/11/30,13:50,4.1,south-southeast,6.6
2021/11/30,14:00,4.0,south,6.3
2021/11/30,14:10,4.0,south-southeast,8.8
2021/11/30,14:20,3.8,south-southeast,7.7
2021/11/30,14:30,4.0,south,6.7
2021/11/30,14:40,4.0,south,8.2
2021/11/30,14:50,3.9,south-southeast,9.7
2021/11/30,15:00,4.0,south-southeast,8.2
2021/11/30,15:10,4.1,south,8.9
2021/11/30,15:20,3.9,south-southeast,8.6
2021/11/30,15:30,4.0,south,8.8
2021/11/30,15:40,3.8,south,9.6
2021/11/30,15:50,4.0,south,8.1
2021/11/30,16:00,4.1,south,7.0
2021/11/30,16:10,4.1,south,6.5
2021/11/30,16:20,3.9,south,6.0
2021/11/30,16:30,3.9,south-southwest,5.8
2021/11/30,16:40,3.9,south,8.0
2021/11/30,16:50,4.0,south,7.8
2021/11/30,17:00,4.0,south-southeast,8.6
2021/11/30,17:10,4.0,south-southeast,8.0
2021/11/30,17:20,4.0,south,7.9
2021/11/30,17:30,3.9,south-southeast,6.8
2021/11/30,17:40,3.9,south-southeast,6.8
2021/11/30,17:50,4.0,south,7.7
2021/11/30,18:00,3.8,south,9.8
2021/11/30,18:10,3.9,south,9.6
2021/11/30,18:20,3.9,south,10.2
2021/11/30,18:30,3.9,south,10.7
2021/11/30,18:40,4.0,south,10.8
2021/11/30,18:50,3.9,south,12.0
2021/11/30,19:00,3.9,south,13.5
2021/11/30,19:10,3.8,south-southwest,12.8
2021/11/30,19:20,4.0,south-southwest,13.1
2021/11/30,19:30,4.0,south,13.2
2021/11/30,19:40,3.9,south,12.0
2021/11/30,19:50,3.9,south,12.0
2021/11/30,20:00,3.7,south,12.5
2021/11/30,20:10,3.9,south,14.2
2021/11/30,20:20,4.1,south-southwest,12.7
2021/11/30,20:30,3.7,south,11.3
2021/11/30,20:40,3.9,south,12.4
2021/11/30,20:50,3.9,south,11.4
2021/11/30,21:00,4.0,south,10.2
2021/11/30,21:10,3.9,south,13.8
2021/11/30,21:20,4.0,south-southwest,9.8
2021/11/30,21:30,4.0,south,9.7
2021/11/30,21:40,3.8,south,9.4
2021/11/30,21:50,4.0,south,9.5
2021/11/30,22:00,3.9,south-southeast,10.2
2021/11/30,22:10,4.1,south,8.1
2021/11/30,22:20,4.0,south,11.1
2021/11/30,22:30,3.8,south-southeast,8.7
2021/11/30,22:40,4.0,south,9.7
2021/11/30,22:50,4.0,south,9.2
2021/11/30,23:00,4.1,south,10.9
2021/11/30,23:10,3.8,south-southeast,11.3
2021/11/30,23:20,3.8,south,8.2
2021/11/30,23:30,3.9,south,11.3
2021/11/30,23:40,3.9,south,9.9
2021/11/30,23:50,3.8,south,12.4
